Location: Poughquag
(41.6090°N, 73.6820°W)
Time: 10:37:59
(UTC-04:00)

CUBESAT XI-V - Visible Passes

Search period start: 17 July 2025 00:00
Search period end: 27 July 2025 00:00
Orbit: 647 x 668 km, 98.3° (Epoch: 17 July)

Date Brightness Start Highest point End Pass type
(mag) Time Alt. Az. Time Alt. Az. Time Alt. Az.
17 Jul ? 02:35:30 10° ESE 02:39:08 24° ENE 02:42:47 10° NNE visible
17 Jul ? 04:13:01 18° SSW 04:15:46 34° W 04:19:57 10° NNW visible
18 Jul ? 03:04:18 15° SE 03:07:46 45° ENE 03:12:06 10° N visible
18 Jul ? 04:42:14 12° SW 04:44:48 18° W 04:47:53 10° NW visible
19 Jul ? 02:00:01 10° ENE 02:00:25 10° ENE 02:00:50 10° NE visible
19 Jul ? 03:33:31 22° SSE 03:36:31 90° ESE 03:41:06 10° NNW visible
20 Jul ? 02:25:41 10° ESE 02:28:53 19° ENE 02:32:05 10° NNE visible
20 Jul ? 04:02:44 22° SSW 04:05:22 44° W 04:09:45 10° NNW visible
21 Jul ? 02:54:01 14° SE 02:57:27 35° ENE 03:01:36 10° N visible
21 Jul ? 04:31:57 15° SW 04:34:21 23° W 04:37:57 10° NW visible
22 Jul ? 03:23:13 22° SSE 03:26:09 70° ENE 03:30:41 10° N visible
22 Jul ? 05:01:59 10° WSW 05:03:26 11° W 05:04:53 10° WNW visible
23 Jul ? 02:16:01 10° E 02:18:37 15° ENE 02:21:13 10° NNE visible
23 Jul ? 03:52:26 25° S 03:54:58 58° W 03:59:28 10° NNW visible
24 Jul ? 02:43:42 12° ESE 02:47:09 28° ENE 02:51:00 10° N visible
24 Jul ? 04:21:39 19° SW 04:23:53 29° W 04:27:51 10° NW visible
25 Jul ? 03:12:55 21° SE 03:15:48 54° ENE 03:20:14 10° N visible
25 Jul ? 04:50:52 12° WSW 04:52:55 15° W 04:55:30 10° WNW visible
26 Jul ? 02:06:40 10° E 02:08:21 12° ENE 02:10:03 10° NE visible
26 Jul ? 03:42:08 28° S 03:44:33 76° WSW 03:49:06 10° NNW visible
